Theta_e
315 315 315 315 316 316 317 316 317 317 317 318 318 318 319 319 319 319 318 319 319 319 319 320 320 320 320 320 320 320 320 317 318 318 318 322 328 327 331 332 333 330 326 320 317 314 311 314 313 314 313 311 309 309 313 312 312 309 301 300 298 300 300 303 302 303 307 305 307 312 311 310 309 324 326 330 329 329 331 331 334 338 337 340 340 341 342 342
315 315 315 315 316 316 316 316 316 316 317 317 317 318 319 319 319 319 319 318 319 319 319 319 320 320 320 320 320 321 318 318 316 318 319 326 329 332 329 331 330 329 326 317 317 314 310 311 312 312 308 305 311 307 312 308 312 304 302 301 298 301 303 308 307 307 306 306 313 309 313 318 321 322 324 323 325 325 324 328 331 333 336 338 339 339 339 340
314 314 315 315 315 316 316 316 316 316 316 317 317 317 317 318 319 319 318 318 318 319 319 319 320 320 320 320 320 320 318 317 318 318 323 328 328 329 329 328 328 327 319 317 319 317 314 313 313 310 307 304 307 305 308 307 309 307 303 298 300 306 307 309 309 308 308 309 310 310 315 319 320 325 329 322 321 326 323 323 328 330 330 333 335 337 337 338
314 314 314 314 315 315 315 316 316 316 316 316 316 317 317 317 318 318 318 318 318 318 319 319 319 320 320 320 321 320 318 316 313 320 328 330 330 328 328 327 326 324 320 319 321 318 317 316 313 311 306 303 305 307 304 307 305 306 303 300 302 306 304 308 310 309 309 309 311 317 317 317 324 324 324 323 319 322 322 329 329 329 330 332 334 335 336 336
314 314 314 314 314 315 315 315 316 316 316 317 316 316 317 317 318 318 318 319 318 318 319 319 319 319 320 320 320 321 316 311 312 324 328 333 334 330 327 326 325 323 321 321 320 317 315 312 311 309 306 305 304 305 304 308 309 307 302 305 306 307 304 309 310 310 309 310 313 315 311 321 328 324 323 323 318 317 322 327 330 334 333 333 333 334 335 335
314 314 314 314 314 314 315 315 315 315 316 316 316 316 316 317 317 318 318 318 318 318 318 319 319 319 320 320 320 318 315 299 319 321 336 333 334 332 327 325 325 324 322 320 317 314 312 310 309 305 303 302 302 300 306 307 309 300 304 305 307 308 306 309 309 309 309 308 315 320 323 324 321 320 322 320 317 319 324 327 324 333 336 336 336 335 333 334
314 314 314 314 314 314 314 315 315 315 315 316 316 316 316 316 317 318 318 318 318 318 318 318 319 320 320 320 320 318 314 316 323 329 333 333 332 331 328 327 327 324 323 317 315 311 310 308 307 304 304 301 303 302 305 305 307 303 300 305 305 308 307 309 306 321 319 320 320 323 325 320 321 315 321 320 321 322 325 326 328 335 336 336 334 334 333 333
314 314 314 314 314 314 314 314 315 315 315 315 315 316 316 317 317 317 317 318 318 318 318 318 319 319 320 318 318 316 315 316 326 331 333 333 331 330 329 327 325 324 321 317 313 310 310 307 304 305 302 299 304 303 305 303 306 302 302 306 306 307 307 315 316 320 321 319 321 322 319 318 320 319 319 317 322 323 324 327 329 330 333 332 332 333 333 333
314 314 314 315 314 314 314 314 314 314 315 315 315 316 316 316 316 316 317 317 317 317 317 318 318 319 320 317 315 314 312 323 329 330 333 331 326 329 327 324 325 322 319 316 315 313 310 307 307 307 301 302 307 303 305 303 299 304 304 307 308 305 314 314 315 315 320 320 320 317 316 319 320 321 315 317 321 323 326 327 329 330 328 327 332 333 333 333
315 314 315 315 315 315 314 314 315 314 314 315 315 315 315 315 315 315 316 317 317 317 317 318 318 319 318 317 318 311 317 327 330 333 332 328 327 326 326 326 321 319 314 314 313 312 309 309 309 309 308 307 308 304 307 303 302 306 306 307 310 309 313 315 316 316 319 318 318 315 315 315 320 320 310 320 323 326 325 326 328 326 325 325 327 332 334 333
315 315 315 315 315 315 314 314 314 314 314 314 315 315 315 315 315 315 315 316 316 317 317 317 319 318 316 320 314 310 323 326 327 326 326 327 326 324 323 319 318 317 317 314 311 313 313 311 311 310 308 308 304 304 305 307 308 307 307 308 310 311 312 316 316 316 318 315 318 317 315 318 319 319 313 318 323 327 324 324 325 325 325 325 327 330 333 333
314 314 314 314 315 315 314 314 314 315 315 315 314 314 315 315 315 315 315 315 316 317 318 318 318 318 318 317 316 315 324 326 327 325 328 325 323 325 322 321 320 319 316 317 315 316 314 315 313 308 303 310 302 307 305 309 307 306 310 303 306 311 309 313 313 315 318 311 317 317 314 312 314 311 321 324 325 324 324 324 324 324 324 324 327 329 331 331
314 315 314 314 314 314 314 314 314 314 315 314 314 314 314 314 315 315 315 315 316 317 318 318 318 320 317 314 320 323 324 328 326 325 325 326 325 322 323 323 323 321 319 316 317 315 316 314 314 307 311 307 306 300 309 311 309 309 308 304 304 306 305 311 315 316 315 314 315 315 300 305 311 317 320 325 323 321 319 321 322 323 324 325 327 329 330 332
314 315 315 315 314 314 314 314 314 314 314 314 314 314 314 314 314 315 315 315 316 316 317 317 318 319 317 316 322 324 326 327 327 324 323 326 322 320 321 322 323 323 322 319 318 317 316 316 314 313 314 308 304 313 308 309 310 301 306 305 299 299 299 310 311 314 310 316 316 315 299 304 312 316 321 324 324 320 318 320 324 324 326 325 327 329 330 333
315 315 315 315 314 314 314 314 314 314 313 313 313 313 313 313 314 314 315 315 316 317 317 317 319 317 317 322 328 327 340 328 322 322 325 322 320 318 318 321 320 321 321 319 319 317 318 316 316 310 307 312 310 306 303 305 304 305 299 294 300 299 300 307 312 312 309 314 317 314 301 306 311 316 321 324 324 320 318 319 321 324 328 328 328 328 330 331
315 315 314 314 314 314 314 314 314 313 313 313 313 313 313 313 315 316 316 316 317 317 319 317 319 319 316 314 318 332 322 318 319 324 326 324 321 317 319 317 320 321 319 317 319 320 318 317 312 310 309 309 306 303 302 301 300 303 298 296 295 300 299 302 308 313 314 314 315 312 304 307 310 316 321 324 323 321 319 319 320 324 326 327 327 328 329 330
314 314 314 314 314 314 314 314 314 313 313 313 313 313 314 315 316 315 316 315 316 318 319 319 323 323 312 321 325 317 316 320 326 324 324 324 323 321 319 316 316 317 319 318 317 317 316 313 313 311 311 306 305 304 297 294 293 298 300 299 300 297 300 298 305 311 313 314 310 314 307 310 313 316 318 320 323 322 321 320 322 324 324 326 326 326 328 329
314 314 314 313 313 314 314 314 314 313 313 313 312 312 313 315 315 315 314 314 320 321 321 323 322 317 314 323 312 313 320 321 321 322 323 324 324 321 318 315 316 315 316 314 316 311 315 309 311 304 305 304 305 301 295 290 294 295 295 296 298 299 301 300 300 307 311 313 310 310 309 309 312 316 317 319 320 319 320 323 322 322 323 324 325 325 326 327
314 314 313 313 313 313 313 313 313 313 313 312 312 313 315 316 317 318 319 319 317 317 315 315 315 308 303 312 321 319 319 321 322 322 319 321 322 321 319 319 316 314 310 308 310 310 312 308 309 303 298 301 300 301 298 299 301 300 299 298 300 298 299 300 304 311 311 308 306 308 308 308 310 313 316 316 319 317 317 321 322 321 322 323 324 325 326 327
314 313 313 313 313 313 313 313 313 312 312 311 315 320 319 319 319 320 319 321 319 318 316 317 319 317 316 316 316 320 322 323 317 319 321 322 319 318 316 316 313 313 307 303 307 309 312 301 298 300 300 303 303 304 304 306 305 305 304 302 303 300 302 306 305 311 314 308 306 309 310 310 311 313 314 316 317 316 317 318 320 321 322 323 323 324 325 327
314 314 313 313 313 313 313 313 312 312 312 312 314 316 317 314 308 306 313 316 322 324 320 320 318 316 315 317 319 318 313 316 319 319 321 324 320 316 312 313 309 305 306 308 307 310 310 300 300 302 304 304 306 305 307 307 306 304 303 302 301 303 301 306 307 310 315 308 304 310 308 309 311 313 314 316 315 314 315 317 320 320 322 322 322 323 324 327
314 313 313 313 313 313 313 313 313 312 312 314 314 317 321 318 319 320 318 310 318 320 320 320 320 316 320 319 321 321 317 313 313 317 322 320 316 310 312 310 310 306 311 310 311 307 303 299 305 307 306 307 310 310 309 306 304 304 302 301 300 301 305 308 310 313 313 311 305 308 306 306 309 312 314 313 315 318 319 321 320 320 319 321 322 323 324 325
313 313 313 313 313 313 313 312 312 311 312 315 316 320 322 321 323 324 322 315 314 321 319 318 315 315 316 320 321 321 313 311 309 316 318 318 314 312 312 309 309 308 308 310 303 300 299 304 309 311 311 309 309 308 307 306 307 303 300 299 297 302 300 297 305 309 311 309 305 307 304 306 310 313 313 315 316 317 318 322 324 324 322 320 321 323 323 323
313 313 313 312 312 312 312 311 311 313 314 315 317 318 322 322 323 323 319 312 311 316 319 318 317 316 316 314 319 318 314 313 314 312 321 318 312 315 312 310 308 308 307 307 307 304 303 308 311 312 311 310 307 307 306 304 302 305 305 302 300 300 301 303 302 308 310 311 309 307 305 304 309 308 311 316 319 319 319 322 321 322 324 325 325 326 325 324
312 313 312 312 312 312 311 310 312 317 321 319 316 323 323 322 324 325 317 314 314 314 323 318 319 318 318 324 322 315 316 316 316 319 320 317 315 313 311 314 311 305 307 308 308 307 305 310 312 310 311 309 307 306 305 303 298 301 305 305 304 304 304 306 310 308 305 303 307 306 297 298 307 309 310 313 316 316 320 319 320 321 322 323 323 323 325 326
312 312 311 311 312 311 309 314 321 320 316 313 320 324 322 321 325 327 319 309 303 309 315 309 320 313 323 315 318 317 315 310 318 319 319 320 322 313 312 309 312 304 308 308 308 307 307 311 312 309 308 308 307 306 307 307 300 297 301 307 307 308 306 306 307 306 299 296 304 309 298 294 305 306 309 310 313 314 319 318 319 321 321 321 322 323 323 325
311 311 311 311 311 311 313 321 322 318 311 315 324 325 320 321 330 327 317 305 299 308 307 314 316 313 320 316 317 317 301 306 319 321 319 321 315 320 309 309 310 312 312 311 307 304 309 309 309 309 308 305 305 303 306 306 303 299 307 308 306 306 306 307 307 305 303 307 309 307 305 299 298 304 310 311 310 312 313 316 318 319 321 321 322 322 323 325
311 310 310 311 311 310 314 315 315 313 316 319 322 321 321 324 330 329 313 292 290 312 308 313 315 323 318 318 318 312 311 315 309 314 319 320 319 316 312 309 309 309 311 308 297 307 310 307 308 307 307 306 302 306 310 310 305 304 310 310 309 310 309 308 306 304 305 303 298 302 307 297 296 303 309 310 307 308 310 314 316 318 319 321 322 322 323 326
310 310 310 310 311 311 313 313 315 313 318 320 320 320 320 327 326 317 303 290 308 309 325 312 324 318 317 319 315 315 314 316 308 314 320 321 321 318 314 313 314 312 312 310 303 306 311 311 310 309 307 306 308 310 311 311 305 310 313 313 312 310 310 309 305 304 304 301 295 300 305 296 295 302 305 308 307 306 309 313 315 318 319 319 320 322 324 326
310 310 310 310 311 314 314 316 316 319 317 320 321 321 322 322 321 306 294 288 309 303 313 313 313 311 315 310 312 314 311 313 315 316 317 315 317 318 317 319 313 314 311 311 310 310 312 316 316 310 309 311 311 313 313 311 312 315 313 308 308 306 306 306 305 303 300 291 297 303 304 300 294 301 305 306 306 310 311 312 316 318 319 319 320 323 324 324
309 309 309 309 312 323 319 318 322 323 321 322 321 319 319 321 309 296 289 301 310 309 315 313 309 315 311 308 306 312 311 312 313 314 311 315 312 314 314 312 316 310 309 307 308 310 312 312 311 313 315 313 313 310 314 314 314 311 309 306 304 302 304 302 302 303 293 290 298 303 304 303 292 298 306 310 312 312 314 312 313 316 318 319 321 322 323 325
309 309 309 310 316 318 312 317 323 327 325 325 319 315 315 303 311 294 292 313 299 307 306 306 311 311 310 312 309 310 308 310 312 311 309 310 309 307 309 304 307 301 300 303 301 307 308 308 311 312 315 313 311 308 309 311 311 309 308 305 298 294 296 290 297 291 292 290 300 305 305 300 299 303 307 311 311 313 315 315 316 317 318 321 322 323 323 325
308 308 308 309 312 315 317 320 326 327 328 323 317 314 308 300 289 301 301 306 300 309 306 311 309 310 310 309 308 309 312 305 310 311 311 311 308 309 311 310 310 306 298 303 301 301 302 309 310 311 311 314 312 304 304 303 307 306 304 302 296 291 290 287 293 295 294 299 304 303 306 298 303 305 311 312 314 315 316 318 319 320 320 320 322 324 327 328
308 308 313 317 315 319 321 327 325 327 322 322 315 309 305 294 293 307 303 306 306 312 311 310 309 310 309 305 307 310 304 310 309 312 310 307 310 304 308 311 311 308 307 304 300 300 295 298 304 307 306 313 310 309 308 307 305 306 308 304 299 298 293 287 292 288 290 294 300 304 299 294 296 301 316 313 318 319 319 317 320 321 324 323 322 324 327 324
307 309 315 321 325 325 325 324 326 329 325 313 309 304 293 294 301 301 302 305 307 310 308 312 308 307 306 308 310 310 309 305 310 309 308 306 306 307 304 305 310 310 309 302 304 306 301 300 305 311 310 312 310 312 313 309 308 310 311 310 303 301 304 294 297 297 295 295 294 298 295 303 301 311 314 317 318 317 317 317 318 319 320 322 323 324 325 326
310 324 321 326 329 333 330 327 329 328 321 311 304 297 296 302 300 306 305 309 309 307 307 309 308 304 304 306 309 306 313 307 309 308 307 307 307 306 309 309 308 309 307 301 304 299 301 297 308 309 313 311 311 313 312 313 296 307 309 301 304 310 308 297 298 302 299 294 291 297 300 302 309 313 312 312 313 315 316 318 318 319 320 321 322 323 321 325
323 330 327 331 330 330 328 327 326 324 318 307 302 295 304 306 308 306 309 307 309 310 309 302 304 302 302 302 304 306 308 310 308 306 303 308 305 308 308 309 313 312 311 309 305 308 299 299 308 308 306 311 315 314 313 313 312 307 301 305 312 313 309 301 292 294 293 290 290 299 295 298 301 293 311 311 310 312 313 315 318 319 320 320 320 321 321 322
321 321 324 325 322 326 326 326 325 320 312 307 297 302 306 302 308 308 310 309 310 310 306 304 306 307 302 302 304 304 309 305 305 307 303 306 304 311 309 309 312 312 312 313 306 306 308 298 304 309 308 312 314 314 311 313 314 308 305 313 306 296 295 304 297 289 289 288 290 295 298 298 300 298 306 307 309 310 313 316 315 315 317 317 320 322 323 325
323 321 317 326 326 325 324 328 320 316 309 302 301 299 306 307 309 307 311 311 311 309 306 309 304 307 307 304 306 307 307 301 305 305 302 305 304 309 309 310 309 313 314 313 309 309 311 298 301 309 311 311 313 310 298 304 311 312 313 310 311 307 303 297 298 299 299 291 290 290 297 294 303 304 309 309 311 312 313 315 315 317 318 321 320 321 322 324
326 319 317 323 327 327 328 326 318 312 307 300 305 305 309 304 308 312 312 310 307 307 307 306 310 305 306 308 307 305 307 307 305 305 305 307 307 312 308 314 309 311 313 313 310 311 306 309 294 305 311 309 302 308 304 306 303 304 306 306 306 305 309 307 306 300 298 291 292 291 289 297 304 310 310 311 313 314 314 315 317 318 320 321 321 323 323 324
318 313 314 324 323 329 327 321 311 306 305 308 309 307 307 306 308 310 310 311 311 313 310 309 308 306 304 306 306 310 307 306 307 305 305 307 306 301 310 312 313 310 313 312 310 310 302 304 296 302 303 302 304 309 309 310 309 308 305 303 304 302 299 295 291 305 302 298 292 292 289 298 308 315 313 313 315 315 316 317 317 318 320 322 323 324 323 323
316 307 313 325 329 329 318 311 311 311 309 307 306 308 306 312 308 308 309 312 311 309 315 310 310 309 309 309 309 309 308 305 307 306 306 304 307 308 312 315 314 313 309 308 307 310 312 308 304 299 301 303 305 311 313 312 312 310 310 305 307 306 307 300 288 295 302 301 303 300 294 296 310 315 316 315 316 317 318 319 317 318 320 322 323 324 325 325
315 312 321 328 329 324 314 307 312 311 309 308 311 310 311 309 307 308 307 310 309 312 311 309 310 308 310 310 310 309 310 307 307 305 307 308 309 310 314 317 315 314 312 309 311 313 318 305 301 302 305 307 309 312 312 312 311 307 308 311 307 305 307 303 300 303 298 300 297 296 292 296 309 315 314 316 317 318 318 318 318 319 320 321 322 323 324 324
310 312 318 325 330 324 312 300 302 305 309 312 311 310 312 309 307 307 307 310 310 310 309 310 311 312 310 312 311 308 311 301 309 308 307 310 308 314 314 313 315 313 310 308 305 312 300 307 304 298 297 300 302 307 306 311 311 307 307 308 308 308 309 308 307 307 295 299 301 296 290 295 308 316 317 316 315 316 316 318 319 318 319 320 321 323 324 324
313 316 315 320 326 320 306 310 310 309 309 310 309 308 308 308 310 308 308 309 311 310 311 309 310 312 310 314 312 311 310 307 305 313 311 308 309 316 314 314 315 314 313 315 316 314 308 306 302 294 290 289 288 290 293 299 304 307 307 307 308 308 306 305 297 301 294 300 302 297 296 303 311 313 312 313 314 315 316 317 318 320 320 320 320 321 322 323
310 300 313 315 318 316 312 313 309 307 308 310 308 307 308 306 308 311 311 310 311 311 310 310 313 312 310 310 307 308 308 311 307 305 308 307 310 313 315 314 314 312 319 322 319 315 309 309 306 303 299 297 300 302 306 307 306 305 305 306 306 308 308 307 305 300 296 302 299 302 303 303 305 307 310 313 314 313 314 316 317 318 319 320 321 321 322 323
314 306 305 304 316 314 311 314 312 312 305 313 299 307 306 306 309 308 313 306 313 312 312 310 310 307 309 308 307 306 309 308 310 308 306 307 310 311 314 313 314 315 319 315 318 314 309 303 306 307 306 305 306 306 307 307 304 305 305 305 307 307 308 306 301 298 306 301 294 303 305 304 305 309 310 311 312 314 315 316 317 318 319 319 320 321 322 322
306 311 312 318 306 302 305 305 314 314 312 312 307 311 307 306 309 307 312 314 313 315 309 310 310 311 310 308 308 301 306 306 307 306 309 310 308 311 310 313 311 317 315 313 316 312 307 298 306 307 306 307 307 306 308 307 306 306 306 306 305 306 306 304 304 305 306 298 295 304 306 304 306 309 311 313 314 315 316 317 318 318 319 320 320 319 319 319
312 314 313 317 305 310 311 312 314 313 310 310 308 309 308 307 307 310 310 310 311 311 312 299 307 309 310 311 309 306 306 301 302 310 308 307 308 309 307 310 311 314 312 312 313 317 309 305 307 306 304 305 306 306 308 307 307 305 306 306 306 306 306 306 306 308 307 305 306 307 307 306 308 310 312 314 316 316 317 319 318 318 318 319 318 318 318 319
307 308 309 315 314 310 311 312 313 312 308 313 302 309 308 308 307 311 312 311 308 309 312 308 308 309 312 311 311 308 306 306 307 305 311 310 308 311 309 309 307 313 312 312 311 316 310 300 306 307 304 304 305 307 307 309 305 304 305 307 306 307 307 307 307 309 309 308 308 308 306 305 310 314 314 316 317 317 317 317 316 317 317 317 317 317 318 318
313 317 318 306 304 309 312 312 308 309 306 309 306 310 309 311 309 311 310 314 312 309 311 308 310 310 311 310 310 309 312 311 310 310 311 314 305 311 308 309 311 308 310 310 311 312 311 302 308 306 297 300 305 305 304 307 307 304 305 306 305 305 304 306 303 309 308 305 307 306 303 303 309 314 315 316 316 315 315 316 316 316 317 317 316 316 316 317
317 319 322 315 306 311 307 310 309 307 300 309 308 309 308 309 311 312 307 312 314 314 314 312 312 309 308 310 309 310 313 313 312 314 314 314 314 313 314 313 312 309 308 308 313 309 309 306 302 301 296 294 303 305 307 305 304 300 303 305 307 307 308 309 310 311 310 310 305 298 303 309 311 314 313 313 314 314 314 315 315 316 316 316 316 316 316 316
Wind_Speed
13 13 13 13 13 13 13 13 13 13 13 13 13 14 14 13 13 13 12 12 13 13 13 14 14 15 15 14 15 14 12 12 14 14 15 11 2 6 8 9 10 11 7 5 7 9 9 9 11 10 10 9 9 12 11 14 10 10 11 11 13 10 14 13 16 14 15 16 15 11 15 15 8 18 13 15 17 17 13 12 9 10 11 14 19 21 20 16
13 13 14 14 14 14 13 14 13 13 13 13 14 14 15 14 13 13 13 12 12 14 14 14 14 15 15 15 15 14 14 12 15 13 19 5 6 3 5 9 13 12 6 8 8 9 9 9 10 10 11 10 9 11 11 10 11 11 10 11 12 12 13 15 15 17 16 20 5 9 12 2 11 13 10 12 14 15 14 10 11 15 17 19 21 22 21 18
13 13 14 14 14 14 13 14 14 13 14 14 14 14 14 15 14 14 13 13 13 13 14 15 14 15 15 14 13 13 14 14 13 14 2 6 4 5 4 5 9 11 9 9 8 7 9 9 8 9 10 10 9 11 13 10 11 13 11 12 12 11 14 18 17 19 20 17 4 6 8 13 5 10 2 17 12 10 15 12 15 19 21 21 20 20 20 17
12 13 13 14 14 14 14 14 15 15 14 14 14 14 14 14 15 14 14 13 13 13 14 15 15 14 15 15 12 12 12 14 10 5 5 4 3 6 8 8 9 9 10 11 8 8 8 10 11 11 10 11 8 11 11 10 10 9 13 12 11 14 16 16 17 18 20 20 3 6 4 10 10 6 5 9 16 7 3 11 19 23 23 22 22 21 16 17
13 13 13 14 14 14 14 15 14 15 15 14 15 15 14 14 14 15 14 13 13 13 14 14 14 15 15 14 15 10 10 9 6 7 3 5 2 10 9 9 10 9 10 9 6 7 8 9 8 9 10 8 10 3 9 12 11 8 14 15 13 12 16 15 15 17 18 15 11 2 1 9 11 17 11 8 0 6 1 4 8 17 19 22 23 22 18 18
13 13 13 13 14 14 15 15 15 15 15 15 15 15 15 14 14 14 14 13 13 13 13 14 14 15 15 13 12 10 6 5 6 5 4 6 6 8 11 10 11 10 9 8 7 7 9 9 8 7 8 10 5 8 9 8 6 9 15 16 15 13 10 10 13 15 18 9 13 14 11 9 11 8 12 8 6 7 7 7 6 6 15 17 20 20 18 18
13 13 13 13 14 14 15 15 15 15 15 15 15 15 15 15 14 14 14 14 13 13 13 13 13 15 15 15 14 9 9 11 3 6 11 7 6 12 11 11 10 8 9 7 8 7 8 10 7 8 8 7 6 10 11 8 8 11 12 14 15 13 11 10 12 17 25 22 16 12 15 12 5 9 6 10 5 5 4 4 6 1 10 16 17 18 19 18
13 13 14 14 14 14 15 15 15 16 16 16 15 15 15 15 15 14 14 14 13 13 12 13 13 14 14 11 8 8 11 8 10 10 11 10 10 9 12 11 10 9 8 9 8 7 6 9 8 8 7 8 5 10 7 8 7 11 14 18 11 14 3 15 13 14 18 16 13 15 15 11 11 8 6 8 4 5 0 2 5 5 6 9 14 16 17 16
15 15 14 14 14 15 15 15 15 16 16 16 16 15 15 15 15 14 14 14 14 13 12 12 12 13 12 9 8 9 5 8 10 12 12 11 9 12 11 9 11 9 8 8 4 6 6 5 10 6 5 5 2 9 5 1 7 9 16 17 9 5 14 9 10 14 13 8 9 15 9 7 11 11 10 2 5 1 5 2 7 10 4 6 14 16 16 15
15 16 16 15 14 15 15 16 15 15 16 17 16 16 16 16 15 15 14 14 13 13 11 11 11 11 12 8 9 7 0 8 10 11 11 8 9 10 12 11 7 9 6 2 5 4 5 7 2 11 11 2 3 5 5 3 6 10 16 16 12 11 10 12 11 10 11 12 9 9 4 3 3 3 3 6 8 5 1 5 5 9 11 7 9 14 13 15
15 16 16 16 16 15 16 16 16 15 16 17 17 17 16 16 15 15 14 14 13 12 11 10 10 10 9 7 8 8 6 7 6 7 8 7 8 10 8 7 6 5 6 2 3 5 5 4 4 6 5 4 7 8 3 6 17 13 10 10 8 7 6 9 8 8 4 5 8 6 5 1 2 4 7 11 5 2 7 5 8 7 9 7 9 11 12 13
16 16 17 18 17 16 16 16 16 16 16 17 18 17 17 17 16 15 15 13 13 12 11 9 8 6 9 9 8 6 8 5 5 6 6 6 6 6 4 5 5 5 2 6 6 1 4 3 9 8 2 8 4 8 6 6 7 7 7 5 8 5 9 13 9 4 7 3 2 3 3 3 3 4 6 4 6 7 5 7 7 7 6 8 10 10 10 13
16 16 17 17 17 17 17 17 17 17 18 18 18 18 17 17 16 16 14 13 11 11 9 8 7 5 8 7 9 3 6 6 7 8 7 7 6 3 4 5 6 4 6 4 10 5 4 5 6 4 1 2 3 1 6 5 3 5 3 5 5 4 6 3 4 3 4 3 5 5 4 4 2 9 6 4 8 6 3 4 7 7 12 9 8 11 11 10
17 16 16 17 17 18 18 17 17 18 18 18 18 18 18 17 17 16 15 14 13 13 11 9 5 5 5 7 6 6 5 5 8 8 9 7 6 4 4 5 6 7 3 8 3 1 5 2 6 2 7 4 4 7 3 2 6 6 3 0 2 4 3 3 1 2 2 6 6 7 3 6 9 9 7 5 5 13 7 10 8 7 10 13 11 10 10 10
17 17 16 17 18 18 18 18 18 17 18 19 19 19 18 19 17 16 15 14 14 13 10 6 7 5 6 6 10 4 6 4 8 9 9 8 6 5 3 4 7 6 4 3 5 1 2 5 5 4 4 6 6 8 4 7 7 5 3 5 4 3 1 0 3 2 4 3 6 4 7 5 9 8 8 6 4 12 8 8 10 8 6 10 10 11 10 9
17 17 17 17 18 19 19 18 18 18 19 20 20 19 19 18 17 15 12 11 9 6 6 7 8 9 9 10 3 8 6 10 10 9 9 8 7 7 3 3 5 7 3 5 3 2 2 6 8 3 2 5 7 7 5 5 6 7 6 3 4 3 3 2 5 5 12 3 7 7 1 7 4 9 9 7 7 9 11 11 12 10 9 11 11 10 10 10
17 17 18 17 18 19 20 19 18 18 17 19 19 19 16 14 12 8 8 9 8 7 6 4 3 10 5 5 3 6 9 8 8 9 8 8 9 5 7 4 4 5 6 6 3 1 1 5 2 5 7 4 5 3 4 6 5 6 6 1 2 4 6 3 5 9 10 8 5 8 3 2 7 9 7 5 5 7 8 11 9 9 11 12 10 10 10 10
17 17 17 18 18 18 19 19 18 18 18 20 21 19 15 13 12 7 6 5 6 6 7 9 7 7 13 14 8 3 8 9 6 7 8 7 9 6 6 5 1 4 10 7 2 5 3 3 3 5 3 6 9 5 5 4 7 7 7 6 5 5 5 7 8 9 9 10 7 8 10 7 11 10 7 5 3 1 5 9 10 9 8 8 9 8 10 10
17 17 18 18 18 18 19 19 19 19 19 22 23 25 17 11 7 8 6 6 5 4 4 6 6 4 13 6 15 7 7 7 1 5 9 8 8 6 6 4 4 2 2 3 3 4 3 4 3 4 5 7 7 8 5 5 5 7 9 4 5 7 7 7 6 8 12 10 8 9 5 10 10 8 5 4 5 5 7 11 10 10 9 8 8 8 8 8
17 18 18 18 17 18 19 19 19 19 17 15 10 5 5 4 4 3 7 9 10 11 13 10 16 11 11 3 10 6 4 10 6 8 6 7 5 8 10 6 6 6 3 2 4 5 2 6 4 4 7 10 5 1 2 15 2 4 3 2 5 2 3 9 5 9 12 8 7 6 5 10 10 9 6 5 4 5 10 14 11 10 9 9 8 8 8 8
18 18 18 18 18 18 18 19 19 17 13 10 11 7 6 10 10 8 9 8 16 18 15 16 6 9 10 7 8 2 4 9 10 8 8 8 7 6 6 7 4 6 7 8 2 3 2 1 6 9 11 12 4 8 16 8 6 5 3 2 5 5 4 7 9 13 8 10 8 8 7 6 6 8 8 6 6 9 13 14 10 11 10 8 8 8 8 6
17 19 19 19 19 17 15 15 15 15 15 10 6 7 9 8 6 7 8 10 13 12 12 15 10 11 4 6 6 7 2 6 10 7 9 5 8 6 4 8 6 1 4 6 1 4 5 8 7 10 16 17 12 6 4 1 2 2 0 2 1 2 5 5 5 7 8 6 8 10 9 5 3 7 9 9 7 7 11 10 10 11 11 9 8 8 7 7
18 18 19 18 18 16 14 15 13 12 8 5 7 11 8 9 8 7 6 9 13 13 13 13 10 4 5 4 8 3 9 5 6 11 11 6 8 9 9 7 5 2 2 8 4 1 2 4 6 5 3 5 1 1 3 4 1 2 3 1 2 2 5 2 8 9 8 6 8 8 9 9 11 11 12 13 13 12 14 7 5 4 3 9 13 12 10 10
18 18 18 19 19 16 15 14 13 11 9 12 12 12 8 7 7 9 9 7 9 10 12 4 2 7 4 6 7 8 9 4 6 3 14 6 6 5 8 6 6 3 6 7 5 2 2 2 4 4 4 3 2 2 3 2 3 2 3 4 2 3 9 9 11 14 12 7 9 10 5 6 10 10 10 11 13 13 12 7 6 5 4 2 1 4 10 13
18 17 18 18 18 16 14 16 8 8 9 11 13 12 4 6 7 7 9 9 9 11 7 11 5 7 1 2 4 7 7 6 5 1 12 5 8 9 5 3 2 4 5 7 2 3 4 5 5 4 2 4 3 1 2 2 3 3 5 6 8 13 11 10 8 9 6 6 9 12 7 7 9 9 9 9 8 10 10 9 8 7 8 8 6 4 4 7
18 18 17 18 18 15 13 6 4 6 7 8 3 4 5 7 6 7 6 5 6 1 8 3 3 1 3 7 5 5 5 2 4 6 4 5 8 6 5 4 2 7 6 6 6 5 3 3 2 4 5 7 8 4 7 4 2 2 2 9 10 6 10 8 9 7 5 5 8 10 5 2 6 7 7 7 7 9 9 9 9 9 8 7 6 5 5 6
18 18 17 16 15 13 7 1 9 11 8 0 5 4 6 6 6 7 5 4 7 1 6 5 5 3 4 4 5 4 8 6 4 2 5 8 8 7 7 4 4 6 7 4 5 2 3 5 1 2 5 6 4 1 5 4 4 2 7 9 12 15 11 7 8 2 2 3 4 9 3 2 2 6 8 5 6 8 8 8 9 10 10 9 8 8 8 7
19 19 18 16 13 7 5 9 11 9 6 8 6 6 6 6 6 1 2 3 6 5 1 2 3 4 7 5 4 7 4 2 5 3 1 4 5 4 6 3 6 6 3 3 1 5 4 1 1 1 2 8 5 2 6 14 7 6 6 9 11 5 3 5 4 1 1 2 4 5 7 4 3 5 4 5 6 8 8 9 10 11 11 10 9 9 9 9
18 18 18 15 12 10 8 6 8 8 8 8 8 7 5 6 6 4 2 3 3 3 2 2 2 7 8 7 10 7 7 1 7 7 4 4 2 2 4 2 3 4 7 2 3 6 3 6 3 3 1 2 4 6 4 4 4 4 3 4 6 9 9 5 2 3 4 2 5 4 6 3 4 5 4 4 6 7 9 11 11 12 11 11 10 9 8 7
17 17 16 13 10 6 5 5 9 10 10 8 8 8 9 7 4 4 2 3 3 0 4 1 6 4 3 9 4 6 8 3 3 3 7 4 9 4 7 2 4 4 8 1 2 4 1 2 5 2 2 3 2 4 2 0 2 2 3 3 7 7 5 2 3 4 3 1 1 3 7 3 1 1 3 8 6 7 8 8 9 11 12 12 11 10 10 9
17 16 15 9 5 4 4 6 4 6 5 6 8 10 7 5 4 3 5 5 5 5 5 2 6 4 5 6 6 1 9 3 3 6 4 8 7 6 5 4 7 1 2 6 4 6 2 4 2 2 3 2 3 2 3 4 6 3 4 1 5 4 7 5 6 8 3 2 6 4 7 5 1 5 1 6 8 6 6 8 11 11 13 12 10 10 11 11
16 14 12 6 6 8 5 2 9 7 6 8 8 7 4 6 4 2 4 2 8 7 9 6 5 7 7 6 8 6 7 4 3 5 5 3 7 3 4 3 2 2 5 4 6 11 7 1 1 4 1 6 3 3 5 5 6 6 5 4 1 3 5 3 4 4 1 3 3 6 2 3 6 2 7 8 8 8 5 5 7 7 10 10 10 11 9 10
18 14 13 10 9 7 10 10 7 6 7 7 6 5 6 5 5 3 7 6 2 2 3 6 7 10 8 9 6 7 3 8 6 4 6 5 7 7 6 7 7 4 1 2 1 5 4 5 5 3 3 3 3 2 4 2 4 4 3 1 1 3 1 2 2 3 4 4 6 5 6 4 3 4 11 10 10 10 12 5 1 6 5 6 8 7 8 10
17 13 6 6 9 9 8 7 6 7 7 5 5 5 7 5 4 6 8 5 6 5 9 8 10 11 8 5 6 5 6 2 11 11 12 8 8 4 4 10 9 7 3 1 1 5 2 1 4 4 1 3 3 1 4 2 3 7 6 8 5 3 1 1 2 1 3 4 3 7 4 5 5 5 5 5 7 9 8 5 6 8 8 4 8 6 9 6
21 11 8 8 9 11 11 9 6 4 5 4 6 6 4 6 9 8 7 7 8 10 9 9 11 11 10 4 7 8 7 3 8 7 2 5 5 2 2 6 4 8 1 2 3 3 9 4 3 5 3 3 3 2 6 0 4 2 2 5 3 4 4 2 3 4 5 6 3 4 3 2 2 3 2 2 7 5 4 2 3 4 6 9 4 6 7 4
13 3 6 5 7 6 8 6 4 4 4 5 6 4 6 6 7 3 4 4 8 9 12 12 7 7 8 9 6 11 16 10 7 6 5 5 8 5 8 3 5 5 3 1 2 3 1 2 5 6 3 3 7 3 6 7 1 4 6 4 4 6 6 4 4 4 7 3 3 0 4 1 2 6 8 4 8 8 6 4 4 5 7 12 7 7 8 3
5 3 4 7 8 5 5 4 4 4 4 6 6 6 7 8 7 7 5 9 9 11 8 9 5 6 4 0 7 6 5 15 4 5 3 6 2 8 4 6 8 11 1 2 3 1 6 3 7 3 1 4 3 4 2 9 5 3 2 5 9 13 7 3 4 4 3 3 2 3 2 6 6 4 6 1 11 9 11 10 9 10 12 8 5 7 7 7
7 7 8 10 4 4 3 5 4 4 5 6 5 10 9 11 7 2 7 8 9 10 7 7 5 4 6 7 0 10 10 7 10 7 4 6 2 6 7 5 13 5 4 6 5 5 7 3 2 7 1 6 7 4 2 5 5 6 4 7 3 4 1 6 1 2 4 4 4 3 6 6 5 7 1 7 8 9 10 11 11 11 10 12 12 12 11 9
8 6 7 5 6 5 5 5 4 5 6 7 8 7 11 12 4 7 8 8 6 8 6 3 2 5 10 6 3 6 8 6 9 6 7 4 3 9 4 1 6 5 7 5 4 4 3 3 1 2 2 4 3 2 0 6 7 9 5 8 12 6 2 4 1 2 2 5 3 3 1 5 3 3 6 9 10 9 10 9 11 12 13 10 12 12 11 8
6 5 2 6 5 5 6 5 4 6 7 6 8 9 7 9 8 3 3 7 7 7 1 5 6 4 3 8 9 7 5 3 4 6 7 4 2 11 8 4 4 10 10 6 5 3 2 0 2 4 2 1 1 3 4 1 1 3 4 4 1 6 9 5 2 3 0 2 4 5 4 4 5 4 5 9 8 7 9 10 10 11 12 14 15 9 9 10
7 7 1 5 6 6 5 4 5 7 8 8 11 11 11 8 9 8 9 5 6 2 6 6 8 5 3 6 5 3 3 4 5 3 5 7 8 3 6 11 6 7 8 4 6 4 1 1 0 3 6 5 2 4 4 8 5 3 1 2 1 1 1 2 1 6 7 3 4 4 6 2 5 1 1 6 5 7 10 11 11 12 13 13 13 13 11 8
5 6 3 7 7 6 5 6 6 7 7 8 7 5 5 9 8 11 8 4 5 7 4 6 6 6 1 6 3 5 3 5 5 3 3 4 3 5 11 12 7 6 6 6 7 4 3 2 3 3 2 7 3 14 7 3 2 4 6 2 2 5 10 3 2 5 1 4 5 8 6 3 5 5 3 8 8 9 10 11 11 12 12 12 13 13 13 13
6 5 6 8 7 8 5 7 7 8 8 8 7 5 8 9 5 6 6 3 5 4 6 6 7 7 6 8 6 8 13 5 5 3 3 4 4 8 11 20 13 11 6 6 4 5 5 4 4 2 2 9 5 12 7 3 1 2 5 5 3 3 11 7 6 3 4 4 5 4 3 3 2 8 4 6 9 9 10 10 12 11 11 12 13 13 13 13
8 8 3 7 7 6 6 4 3 4 6 12 9 10 7 10 9 9 7 7 4 5 7 7 6 7 6 7 7 2 5 6 4 8 2 3 2 13 15 15 16 8 6 3 5 6 4 3 4 3 0 3 7 10 5 9 7 3 5 4 3 8 10 12 6 4 1 3 4 4 5 5 5 3 1 8 10 12 11 10 11 11 10 10 11 11 11 12
8 8 7 7 7 5 7 6 6 5 3 8 10 9 10 6 6 5 8 9 6 7 7 3 5 8 7 12 9 10 6 2 4 8 14 16 12 10 9 9 16 10 11 9 8 5 4 3 2 3 2 1 2 2 1 2 5 7 7 9 10 5 9 3 3 5 3 3 3 5 9 8 6 7 7 7 9 11 12 12 12 11 10 11 11 10 10 11
4 4 2 4 5 6 8 9 8 8 6 5 6 8 9 8 2 1 4 8 5 8 6 8 7 5 6 7 9 7 9 10 8 5 6 4 8 8 10 13 6 4 10 15 17 8 2 2 5 5 6 5 5 2 4 4 3 4 9 6 10 11 7 8 7 6 5 6 9 9 11 12 11 8 5 2 6 10 10 10 12 11 11 11 11 11 10 10
6 6 4 3 2 5 7 6 7 5 4 2 4 5 9 9 6 5 5 7 3 6 7 7 8 8 7 9 10 11 4 2 5 3 0 4 7 6 12 10 12 5 5 7 10 7 2 2 4 7 9 8 3 3 4 2 4 6 7 10 12 11 10 9 6 6 9 10 8 7 11 11 9 10 11 12 11 9 8 10 10 10 11 11 11 11 13 12
5 4 5 3 3 2 4 4 12 9 7 4 5 5 8 10 7 6 7 8 10 8 8 5 7 7 5 5 5 5 6 5 3 2 1 2 8 8 7 5 8 3 4 7 5 4 4 2 4 6 7 12 9 4 6 6 3 7 9 10 11 11 10 9 8 6 2 4 8 10 13 13 10 10 10 10 11 10 10 9 9 11 9 12 13 13 13 13
6 6 5 3 4 5 6 1 6 8 9 5 4 6 6 6 8 7 5 8 8 7 7 5 7 8 6 3 3 4 10 6 2 1 1 5 6 7 6 7 4 10 2 4 4 4 4 1 3 6 9 11 10 18 10 7 9 8 9 9 10 12 11 10 9 8 11 13 13 13 13 12 10 9 9 9 10 11 8 10 9 10 11 11 12 12 13 13
5 6 6 8 8 9 8 6 6 5 7 4 2 4 6 5 7 5 6 7 6 8 7 8 10 10 10 8 7 5 3 10 15 10 5 3 4 2 3 2 6 4 4 6 4 3 4 0 2 4 3 5 10 16 7 7 13 7 6 7 9 10 10 12 12 14 16 15 14 15 14 11 8 8 9 9 9 10 11 11 11 11 10 11 12 13 13 12
6 6 4 6 8 6 6 5 7 5 5 2 4 3 5 5 6 7 8 6 6 8 7 8 8 10 9 8 2 5 8 8 8 11 12 3 3 3 3 1 3 5 1 1 2 2 3 3 4 4 0 4 9 14 5 15 9 11 10 8 7 6 8 7 6 5 8 12 14 13 10 9 8 9 8 9 9 10 10 10 10 10 11 10 11 12 11 11
6 7 7 6 7 7 9 6 5 5 2 3 4 6 6 6 6 5 6 7 6 7 7 7 9 9 9 8 9 7 5 8 11 11 11 11 9 7 4 6 7 5 5 1 4 3 4 3 1 2 4 3 12 8 17 3 6 4 6 6 3 8 10 9 9 9 9 10 9 5 8 9 10 9 10 10 10 10 10 9 8 10 11 11 10 10 13 11
Wind_Direction
338 336 336 333 332 332 331 330 330 328 324 322 318 317 316 316 312 312 313 310 307 306 305 304 306 308 308 314 312 315 318 305 300 290 269 234 38 72 78 93 142 132 161 254 253 252 254 243 230 228 228 225 226 241 242 233 232 223 218 223 225 240 235 230 236 231 247 251 243 224 221 235 183 91 115 99 94 88 85 83 80 75 75 107 118 130 137 139
337 335 333 332 330 331 330 328 327 326 323 319 318 316 316 313 313 311 310 310 309 305 304 304 303 307 312 312 316 319 313 300 284 281 268 112 188 108 125 132 136 149 183 230 243 229 246 246 234 225 226 228 221 236 226 235 227 223 223 223 233 222 237 242 245 248 241 245 2 344 340 54 61 99 117 110 104 102 92 87 93 95 101 113 126 135 138 143
335 333 332 330 329 329 329 326 325 324 321 318 316 315 314 314 312 311 310 309 307 307 303 301 306 307 309 314 316 310 301 296 288 272 254 100 136 212 128 141 136 155 196 225 222 244 251 267 256 226 224 239 214 229 216 230 230 223 234 226 228 232 241 248 250 248 252 257 21 312 11 60 8 42 73 126 121 119 125 141 133 133 136 135 138 139 141 144
334 333 331 330 328 328 327 325 322 321 319 316 315 313 311 312 311 309 308 309 306 304 303 301 305 309 308 311 319 311 295 302 282 80 80 99 218 181 171 141 149 180 220 240 261 271 285 279 278 257 236 229 230 229 226 220 231 215 235 235 221 217 235 243 252 250 253 262 156 57 100 50 52 65 30 148 138 137 162 166 156 150 146 141 140 140 145 146
332 330 330 329 328 327 325 324 321 319 317 316 312 312 311 309 309 307 308 306 307 305 304 305 306 307 309 311 305 296 299 283 69 87 83 195 148 180 161 177 164 207 218 227 236 255 270 258 251 268 258 235 223 242 278 235 220 264 244 238 243 216 230 245 256 261 261 255 86 274 321 78 63 29 22 27 37 166 223 328 355 136 142 144 144 144 146 151
331 329 329 329 328 327 325 322 320 318 315 313 312 309 309 307 306 306 306 306 305 306 306 305 307 308 306 306 298 286 278 351 17 38 60 56 68 165 169 174 196 224 210 229 245 243 238 235 245 240 243 240 266 252 221 242 275 243 246 244 241 242 255 242 260 252 251 262 38 47 45 48 76 64 33 74 55 355 327 30 251 154 144 141 140 144 150 151
329 329 327 328 327 326 324 322 319 317 314 311 310 309 306 306 304 306 307 306 305 306 306 306 306 307 308 300 271 253 248 261 4 106 92 88 113 151 172 186 194 232 244 231 233 250 221 243 219 230 250 249 154 246 258 271 232 260 265 258 232 249 241 270 325 8 39 32 38 55 63 61 72 81 26 41 43 79 327 50 360 148 149 149 145 148 148 154
327 326 326 325 326 326 323 320 318 316 312 311 308 308 305 304 305 306 307 305 305 303 305 303 305 305 315 313 290 219 232 263 107 108 120 124 140 177 182 182 188 197 208 241 243 231 246 235 220 230 220 240 342 248 260 259 288 257 260 259 249 232 288 27 13 30 54 46 30 39 52 53 53 83 80 13 32 92 320 99 117 5 151 145 140 147 149 151
328 326 322 323 323 323 321 318 317 315 312 309 309 306 306 304 306 305 306 304 302 303 301 302 302 306 306 283 286 306 297 76 121 133 146 148 147 163 197 183 190 204 217 237 245 275 270 283 257 243 271 285 6 290 234 347 286 277 277 298 276 253 35 16 27 41 55 61 43 54 38 48 95 112 67 345 301 45 337 234 140 131 115 196 158 153 156 153
326 325 322 320 321 321 319 317 315 314 312 309 307 306 304 303 303 304 300 301 301 299 300 300 296 307 298 277 271 276 332 115 136 155 155 150 160 189 196 241 172 225 242 119 301 260 252 257 142 291 308 109 313 303 340 247 245 275 283 269 7 21 31 34 27 29 66 62 77 98 93 262 178 132 149 199 259 132 239 209 164 138 146 227 191 158 150 149
324 324 323 321 319 320 319 315 314 313 311 309 306 305 304 304 301 301 299 295 297 297 296 292 299 303 289 276 282 294 116 165 155 145 164 171 197 216 219 205 232 266 295 315 207 243 267 285 314 285 248 64 224 230 173 239 233 234 268 283 32 20 55 48 28 19 357 53 20 79 121 232 281 173 166 185 181 76 122 236 150 151 139 224 209 153 146 150
324 326 324 322 319 318 319 315 312 312 310 308 307 306 306 303 302 297 296 292 291 293 291 290 289 281 274 274 257 285 165 164 176 145 150 172 211 237 283 228 250 250 316 269 295 151 248 16 298 289 247 282 267 309 220 248 261 266 307 280 6 4 57 22 25 13 66 82 57 1 131 166 164 128 114 109 78 37 97 186 143 169 129 180 238 151 146 149
323 324 324 322 320 319 317 316 312 312 311 309 308 306 304 302 299 297 292 292 282 280 282 287 285 263 287 278 244 243 200 151 185 157 173 191 192 229 255 265 263 323 300 21 304 252 257 196 271 243 273 280 304 148 285 256 286 297 184 276 3 353 76 10 308 40 50 86 77 44 171 163 162 126 103 90 109 100 8 205 184 208 153 174 222 149 146 150
322 321 323 321 318 318 317 315 314 312 312 309 307 306 304 301 297 294 289 283 285 276 272 270 273 264 270 264 292 140 175 201 164 180 207 193 197 190 256 265 253 262 219 283 269 296 212 234 196 212 263 171 219 219 256 258 205 217 260 220 227 4 65 38 254 339 13 128 124 143 221 206 162 139 124 137 136 129 169 210 200 211 166 167 178 150 149 147
319 320 321 320 318 317 316 315 314 313 312 309 307 305 302 299 295 291 286 281 268 260 258 273 233 255 221 246 248 136 28 241 190 207 210 194 210 196 248 266 265 248 282 262 253 120 244 237 254 242 226 174 240 183 207 211 192 197 207 214 198 187 150 313 306 227 234 163 164 159 249 149 133 136 160 157 182 122 130 214 207 189 173 159 154 153 148 154
320 319 320 320 318 316 315 315 313 313 312 309 305 305 300 288 288 286 273 263 271 302 247 234 220 228 292 276 76 96 181 218 211 213 197 217 203 236 186 297 329 282 244 231 296 290 37 335 278 299 329 246 225 206 197 196 192 178 231 165 220 187 129 29 273 265 262 226 179 198 251 121 130 182 169 171 178 123 154 202 213 169 170 154 159 152 148 155
321 319 321 320 318 315 315 314 314 314 314 310 308 298 293 289 291 287 266 246 245 233 228 249 209 195 267 74 143 228 206 222 211 194 197 224 218 232 171 234 273 297 227 264 268 230 309 294 341 262 219 252 247 162 208 211 171 186 206 173 153 186 156 114 291 259 252 234 178 180 231 158 145 186 198 169 186 152 182 213 201 175 167 166 161 160 152 161
321 321 321 320 317 317 314 314 314 314 317 313 306 293 285 288 299 284 232 233 224 217 233 245 278 288 241 248 252 254 116 188 222 189 202 206 232 156 180 216 309 312 358 294 124 289 84 293 344 283 237 195 230 168 221 190 187 171 183 187 151 188 202 135 169 227 212 224 221 176 202 151 141 172 198 168 156 274 253 206 191 178 170 167 160 167 169 174
320 321 320 320 317 316 315 314 314 318 318 315 293 273 272 261 265 230 238 170 191 191 208 178 203 216 345 339 214 221 151 76 155 166 186 218 190 227 198 228 214 91 318 39 245 253 157 254 206 264 245 206 205 204 218 264 198 169 182 199 157 178 184 179 204 189 189 187 206 189 169 142 152 174 190 200 154 164 235 258 185 179 166 167 166 175 171 173
318 320 320 318 318 314 315 314 315 317 323 318 321 285 203 218 194 182 213 226 240 264 283 272 198 257 284 71 327 17 67 161 193 202 181 193 206 195 234 203 211 171 104 234 239 237 297 243 236 242 262 290 235 22 193 267 127 97 108 221 168 183 166 126 143 221 186 195 196 169 119 134 153 157 180 190 169 183 246 221 189 169 165 171 173 181 177 176
315 319 319 319 316 315 312 314 312 313 318 306 299 294 298 3 354 343 334 277 239 234 262 275 267 326 295 20 280 339 176 180 230 147 207 152 226 227 215 210 196 283 250 211 32 357 204 331 270 200 244 252 278 180 234 261 134 170 130 169 179 168 182 162 182 205 187 198 164 145 128 144 170 177 175 163 173 214 215 235 183 173 165 172 169 177 185 173
315 319 321 318 315 314 311 308 311 309 306 276 265 267 291 25 352 323 307 298 307 303 260 252 255 249 217 175 316 83 232 293 206 145 153 187 183 227 138 254 74 347 358 122 154 165 216 255 156 222 190 225 226 230 209 288 118 150 214 94 9 134 33 345 264 207 215 239 151 153 142 174 199 203 174 174 175 211 244 205 189 170 158 163 169 176 168 162
318 319 319 319 315 312 313 307 304 309 304 250 234 246 268 348 345 327 295 278 276 263 263 269 309 341 302 327 72 73 282 351 343 176 163 195 211 227 303 307 132 228 222 217 179 203 264 245 117 194 177 229 108 262 196 177 260 185 141 211 206 81 114 261 268 241 198 206 150 180 154 164 175 188 180 190 174 192 213 218 77 45 130 174 171 172 169 169
317 317 318 318 316 313 311 313 295 279 226 226 249 267 345 336 341 318 310 285 295 286 262 289 313 285 354 330 61 280 264 34 290 15 141 191 244 255 260 318 329 28 302 357 18 304 26 77 81 81 51 10 76 125 188 188 193 204 253 194 184 209 211 201 177 196 177 225 161 166 172 162 173 190 164 177 182 170 184 167 151 140 160 217 253 148 171 169
317 317 320 318 316 314 312 320 292 225 224 214 242 257 345 341 317 339 304 288 238 245 227 246 239 263 15 135 222 267 42 233 348 26 148 233 222 237 271 266 285 316 310 316 224 220 105 106 140 112 118 60 47 99 197 211 234 235 218 235 164 202 212 215 163 160 148 162 194 178 182 178 187 186 166 154 170 178 165 172 176 180 179 178 188 197 167 173
319 317 321 319 315 315 314 294 204 270 260 260 6 39 353 334 342 325 319 274 298 137 154 264 107 247 7 196 222 68 294 320 55 31 274 208 323 313 324 259 11 300 284 267 354 341 76 140 249 52 61 18 24 4 49 46 12 301 247 203 226 214 209 180 168 172 146 158 176 217 260 139 164 189 179 170 170 169 167 177 177 181 185 186 177 186 195 182
320 320 320 320 315 319 292 323 344 310 281 220 27 357 345 316 351 321 281 265 246 353 256 97 218 95 248 73 256 177 247 53 6 207 202 151 265 158 275 61 292 255 259 44 330 115 196 117 164 117 105 60 5 225 130 59 55 303 265 196 218 220 209 186 183 162 66 290 191 205 156 134 202 188 181 172 178 179 171 184 184 191 189 184 187 177 186 183
321 320 321 318 311 289 293 319 312 293 346 358 335 329 329 350 311 273 29 300 56 243 26 193 52 111 265 161 163 256 23 245 243 154 136 99 253 152 266 301 284 291 313 274 272 359 273 199 222 193 33 143 196 207 177 168 162 214 211 181 167 264 172 186 196 319 278 188 139 211 115 94 270 317 189 156 190 193 196 194 201 199 198 190 188 183 188 180
320 321 322 316 302 271 265 264 306 280 330 340 338 317 334 332 287 301 297 269 30 321 93 180 139 228 221 230 252 258 313 164 317 115 137 204 165 301 234 301 254 301 258 235 339 301 308 10 4 36 342 27 75 160 184 146 233 92 44 41 24 19 30 41 49 9 351 267 180 165 215 249 128 244 167 209 201 213 210 208 208 205 199 198 196 185 180 165
320 321 323 318 299 230 218 227 241 262 300 324 332 314 299 279 260 257 244 266 30 231 199 308 220 323 316 316 297 287 277 188 269 153 187 271 154 179 225 87 2 42 356 346 288 226 79 108 11 5 306 10 10 67 4 193 101 51 90 77 40 37 1 342 56 35 350 40 309 188 110 99 92 161 173 183 214 217 205 215 211 204 199 202 198 181 173 171
320 318 319 313 264 346 316 241 220 253 309 338 329 307 292 257 271 298 273 18 285 315 300 203 311 211 285 304 321 145 281 288 231 241 216 202 206 223 335 175 44 8 91 13 316 303 213 136 327 86 232 274 241 348 93 96 86 83 53 74 150 132 216 215 181 176 203 162 193 249 73 73 80 115 75 323 339 305 264 232 222 202 197 198 194 184 184 169
319 312 308 261 285 324 256 298 358 325 341 332 316 294 264 279 213 247 297 131 261 325 296 344 271 322 290 296 264 297 334 292 330 285 306 322 13 301 212 351 112 62 335 32 345 354 315 124 189 193 123 313 25 287 131 98 82 62 47 41 5 159 182 169 203 179 103 74 50 98 77 126 72 31 343 330 327 314 257 257 272 229 198 193 186 189 180 125
317 315 301 252 259 245 250 266 310 329 318 307 299 267 259 270 278 307 295 350 352 223 347 274 317 294 320 314 328 311 234 296 325 250 347 12 342 312 312 132 114 125 148 29 64 359 329 11 319 97 308 124 313 285 149 149 118 96 95 98 225 209 183 149 110 77 126 117 40 54 347 71 9 22 10 344 339 318 309 307 25 288 243 186 184 149 90 90
311 315 288 208 210 240 272 307 297 314 313 289 270 264 248 276 282 266 285 305 307 301 311 325 316 303 289 283 315 312 345 7 331 24 345 18 64 331 12 118 132 123 145 241 285 164 255 164 81 309 206 130 230 345 14 31 196 173 179 152 234 318 355 270 177 149 86 112 78 15 11 19 14 37 350 341 340 319 289 11 34 12 4 208 179 152 111 117
308 287 240 271 237 244 244 250 268 292 284 276 255 259 267 266 281 328 314 336 327 328 316 325 318 336 303 313 344 344 319 24 311 341 294 18 143 236 50 182 156 121 156 194 59 278 13 34 62 56 57 188 168 136 121 35 272 207 209 194 215 234 143 9 28 94 106 105 86 54 53 76 339 345 327 77 346 285 248 139 78 46 39 34 51 81 81 88
305 212 183 244 228 215 202 213 216 216 261 256 263 260 261 294 301 305 357 322 298 326 326 317 344 321 325 9 353 354 334 328 23 356 350 2 324 19 28 122 185 198 167 357 78 6 75 37 132 125 133 67 94 156 138 88 7 181 209 214 202 95 104 145 43 50 97 91 78 49 112 93 349 343 354 88 62 30 155 103 102 94 71 59 43 64 78 84
279 242 227 221 220 180 172 206 182 220 237 263 266 263 278 299 323 315 340 333 340 316 334 350 6 349 15 78 313 356 336 299 37 327 354 340 324 27 46 327 326 160 51 7 114 336 350 35 142 207 154 174 132 160 147 183 252 95 262 200 164 136 174 210 127 151 183 110 94 161 176 155 198 80 274 143 91 76 100 127 127 126 129 149 157 106 145 119
310 269 263 280 82 131 171 169 202 224 251 258 255 265 281 283 272 5 314 319 347 331 341 15 355 281 329 331 41 337 306 317 349 316 339 18 132 341 98 358 316 339 100 26 356 95 104 315 78 58 349 147 161 212 249 244 226 275 50 73 17 143 150 249 154 145 132 105 126 96 75 56 46 112 58 43 71 87 83 73 69 69 76 90 94 89 107 123
269 285 269 185 143 149 152 148 200 235 241 244 255 254 236 234 285 301 22 332 306 333 351 113 188 324 2 335 273 257 22 49 316 322 319 52 5 334 14 181 339 318 102 64 21 90 114 16 94 204 339 60 84 337 173 264 174 230 298 308 151 210 0 101 131 305 25 125 141 98 191 76 44 16 39 69 67 65 73 79 70 69 67 67 86 85 93 101
270 264 256 132 138 143 139 186 221 237 242 250 257 262 349 326 288 55 358 345 327 322 20 277 176 189 344 289 332 340 41 66 288 340 323 67 29 324 1 101 20 354 358 42 73 36 68 10 344 48 111 163 215 203 105 294 275 224 220 216 30 357 83 86 41 59 197 118 109 119 98 73 64 9 74 88 66 70 81 74 68 72 67 66 75 96 88 93
303 279 149 167 150 169 167 213 240 230 239 246 262 277 269 292 357 328 300 269 293 252 300 314 317 340 13 322 336 17 315 330 282 12 358 353 26 354 348 351 49 2 328 356 74 15 51 120 313 343 320 262 210 148 182 185 207 266 141 13 195 240 263 45 61 114 243 163 127 110 96 326 323 77 321 95 98 70 67 69 69 69 68 68 69 75 84 83
284 275 128 176 142 190 219 251 239 242 251 264 258 292 321 47 292 280 288 342 303 307 320 305 319 339 345 248 24 294 331 337 332 51 355 339 80 152 287 336 357 56 15 16 35 49 37 49 337 294 264 323 353 169 178 104 246 274 261 295 50 87 76 73 103 271 70 45 87 110 114 68 301 282 324 74 87 84 79 82 80 77 73 71 70 73 70 69
265 299 104 165 168 196 236 261 271 262 253 252 312 295 281 265 266 300 329 287 317 355 308 314 321 304 358 345 315 5 353 328 346 17 314 15 332 304 318 324 342 27 348 50 87 199 144 354 334 268 286 270 78 85 113 160 243 289 307 8 331 255 142 155 168 116 94 116 136 118 71 104 299 277 54 88 90 82 73 70 86 83 82 81 81 77 71 69
310 300 170 178 180 223 252 260 270 294 317 324 324 301 310 290 316 312 292 327 315 316 316 315 325 335 317 253 318 37 228 317 1 338 314 218 266 348 335 343 337 37 7 23 323 7 310 56 321 306 258 161 131 124 128 161 170 175 270 143 53 21 74 105 115 125 95 162 231 135 122 122 123 341 329 96 94 92 97 94 83 87 76 71 75 73 77 78
296 280 251 154 197 202 247 252 304 312 346 295 299 296 295 276 256 278 333 319 316 291 312 326 291 327 332 348 6 9 338 87 330 336 23 355 344 311 293 348 29 20 351 16 336 5 45 351 9 352 22 139 156 183 256 28 348 323 70 20 63 19 54 89 105 133 94 356 52 83 106 99 114 129 84 59 92 96 90 86 85 87 100 104 92 87 81 82
279 299 305 183 189 225 244 264 267 278 270 286 309 293 297 291 254 287 287 278 307 322 292 311 320 326 334 338 330 326 8 15 32 340 24 330 311 331 325 322 21 32 10 15 1 331 49 352 307 337 335 325 6 23 84 302 339 15 14 74 44 48 51 107 78 66 82 85 74 77 114 131 127 117 100 104 77 82 85 84 81 79 82 88 96 94 92 91
307 286 329 345 324 233 265 246 259 261 279 16 274 328 307 304 324 301 68 295 25 301 307 307 312 316 348 351 5 324 28 15 24 85 277 269 279 290 312 319 324 78 9 44 6 341 80 329 335 338 317 307 352 318 174 176 332 87 102 55 60 57 58 62 85 93 120 101 79 117 125 110 98 97 107 106 95 81 72 76 87 89 87 89 85 85 89 86
281 333 334 162 235 298 314 336 346 328 309 321 286 317 306 306 327 318 326 316 329 325 324 330 318 337 355 32 15 301 331 345 36 326 272 249 313 327 323 350 295 101 312 38 28 50 348 312 335 329 313 311 288 272 245 181 234 63 63 78 76 72 74 84 85 112 154 133 149 145 119 112 112 108 101 93 94 88 91 90 89 93 86 92 102 103 103 100
308 330 329 42 271 291 289 61 222 263 286 290 304 297 296 312 313 329 332 315 308 310 310 315 322 323 348 351 77 337 358 331 342 252 322 345 319 326 342 352 353 345 25 60 32 35 310 236 302 317 318 311 329 318 314 352 78 70 68 65 72 75 73 79 95 100 104 117 134 131 112 105 111 109 100 96 101 105 102 96 96 99 95 91 85 77 77 78
360 345 329 329 308 293 264 262 288 288 276 66 325 307 310 328 314 332 312 313 312 309 325 313 325 323 324 346 9 355 66 267 293 329 347 267 322 253 305 324 309 290 318 39 12 43 301 15 356 1 311 322 293 276 267 81 70 77 78 64 75 79 77 86 92 97 108 114 117 116 107 104 103 109 115 107 99 106 107 110 99 87 88 86 81 75 69 71
331 294 310 306 302 307 304 275 262 266 293 356 310 342 337 340 311 338 305 293 291 310 320 313 320 310 319 329 105 245 202 240 303 309 314 191 259 252 239 206 259 282 322 73 69 301 270 334 344 289 263 298 299 268 172 119 126 99 56 39 56 74 90 88 99 134 123 130 129 122 120 126 131 116 115 110 106 98 94 91 94 97 94 91 88 85 81 71
332 328 314 291 285 301 294 269 249 262 276 80 188 298 311 314 319 325 324 312 320 318 313 317 312 316 304 321 325 332 302 287 285 295 293 298 282 278 206 232 244 254 264 141 63 353 339 334 350 349 321 283 255 4 342 105 92 66 66 24 1 103 92 85 75 80 105 133 143 151 127 134 138 135 121 105 95 87 84 81 79 81 71 68 71 82 81 82